FOX-1B (AO-91) (43017 NORAD) Tracking and Keplerian Element Data

This shows tracking and keplerian element data for the satellite.

Feedback or suggestion? Click here.




ElementValue
Catalog43017
NameFOX-1B (AO-91)
Epoch Orbit5318
Epoch Day317.61125466
Epoch Year2018
RAAN242.566
Inclination97.714
Eccentricity0.0259933
Argument of Perigee144.9256
Mean Anonmoly216.9385
Mean Motion14.7826716
Decay Rate4.72E-06
L11 43017U 17073E 18317.61125466 .00000472 00000-0 42100-4 0 9998
L22 43017 97.7140 242.5660 0259933 144.9256 216.9385 14.78267160 53185

Live tracking and technical data element details for FOX-1B (AO-91) (NORAD 43017). FOX-1B (AO-91) can be tracked NOW for your location showing map with azimuth and elevation plus other details from your city location.

Track the satellite on the map from your city or location and see movement details for azimuth, elevation, latitude, longitude, range, height, and movement on the map or in text.







IsCatalogInMostPopularTable: catalog: 43017, numindb: 309
Update: records affected: 1



GetName: 43017 FOX-1B (AO-91)

Hit Count: updated at: Wed, 14 Nov 2018 11:22:35 GMT